Tracking 31027 objects as of 19-Jul-2025
HD Live streaming from Space Station
objects crossing your sky now

DMSP 5D-2 F13 DEB

Track DMSP 5D-2 F13 DEB now!
10-day predictions


NORAD ID: 42262
Int'l Code: 1995-015GC
Perigee: 673.6 km
Apogee: 713.4 km
Inclination: 98.5 °
Period: 98.5 minutes
Semi major axis: 7064 km
RCS: Unknown
Launch date: March 24, 1995
Source: United States (US)
Launch site: AIR FORCE WESTERN TEST RANGE (AFWTR)

Note: This is SATELLITE DEBRIS
Your satellite tracking list
Your tracking list is empty




NASA's NSSDC Master Catalog

Two Line Element Set (TLE):
1 42262U 95015GC  25199.38883831  .00008125  00000-0  16165-2 0  9991
2 42262  98.5385 251.1534 0028181 351.1096   8.9602 14.62103404537401
Source of the keplerian elements: AFSPC